• en France
  • Liste des pays
  • À 7 jours
  • Température de l'eau
  • Carte satellitaire
  • Carte météo
  • Widgets météo
  • user-avatar
    Se connecter

    Météo par heure à Mokoa

    Ce jour, 13 Décembre, Mercredi

    Heure Température Précipitation Vent Pression Humidité
    00:00 +25°C° 0 mm 1 m/s 755 mmHg 86%
    01:00 +25°C° 0 mm 1 m/s 755 mmHg 87%
    02:00 +24°C° 0 mm 1 m/s 755 mmHg 88%
    03:00 +24°C° 0 mm 1 m/s 755 mmHg 89%
    04:00 +24°C° 0 mm 1 m/s 755 mmHg 90%
    05:00 +24°C° 0 mm 1 m/s 755 mmHg 88%
    06:00 +25°C° 0 mm 1 m/s 756 mmHg 87%
    07:00 +25°C° 0 mm 1 m/s 756 mmHg 85%
    08:00 +28°C° 0 mm 2 m/s 756 mmHg 75%
    09:00 +30°C° 0 mm 2 m/s 757 mmHg 66%
    10:00 +33°C° 0 mm 3 m/s 757 mmHg 56%
    11:00 +34°C° 0 mm 3 m/s 756 mmHg 52%
    12:00 +35°C° 0 mm 3 m/s 756 mmHg 49%
    13:00 +35°C° 0 mm 3 m/s 755 mmHg 45%
    14:00 +35°C° 0 mm 4 m/s 755 mmHg 47%
    15:00 +34°C° 0 mm 4 m/s 754 mmHg 49%
    16:00 +33°C° 0 mm 4 m/s 754 mmHg 51%
    17:00 +30°C° 0 mm 3 m/s 754 mmHg 59%
    18:00 +28°C° 0 mm 3 m/s 754 mmHg 68%
    19:00 +26°C° 0 mm 3 m/s 754 mmHg 76%
    20:00 +25°C° 0 mm 3 m/s 755 mmHg 78%
    21:00 +25°C° 0 mm 3 m/s 755 mmHg 80%
    22:00 +25°C° 0 mm 3 m/s 755 mmHg 81%
    23:00 +25°C° 0 mm 3 m/s 755 mmHg 83%

    Demain, 14 Décembre, Jeudi

    Heure Température Précipitation Vent Pression Humidité
    00:00 +25°C° 0 mm 3 m/s 755 mmHg 84%
    01:00 +24°C° 0 mm 3 m/s 755 mmHg 86%
    02:00 +25°C° 0 mm 3 m/s 755 mmHg 88%
    03:00 +25°C° 0 mm 3 m/s 754 mmHg 89%
    04:00 +25°C° 0 mm 2 m/s 754 mmHg 91%
    05:00 +25°C° 0 mm 2 m/s 755 mmHg 89%
    06:00 +26°C° 0 mm 3 m/s 755 mmHg 88%
    07:00 +26°C° 0 mm 3 m/s 755 mmHg 86%
    08:00 +28°C° 0 mm 3 m/s 755 mmHg 75%
    09:00 +30°C° 0 mm 4 m/s 755 mmHg 64%
    10:00 +33°C° 0 mm 5 m/s 756 mmHg 52%
    11:00 +34°C° 0 mm 5 m/s 755 mmHg 49%
    12:00 +35°C° 0 mm 5 m/s 754 mmHg 45%
    13:00 +35°C° 0 mm 5 m/s 753 mmHg 42%
    14:00 +35°C° 0 mm 5 m/s 753 mmHg 45%
    15:00 +34°C° 0 mm 5 m/s 752 mmHg 49%
    16:00 +33°C° 0 mm 6 m/s 752 mmHg 53%
    17:00 +32°C° 0 mm 5 m/s 752 mmHg 62%
    18:00 +29°C° 0 mm 5 m/s 753 mmHg 70%
    19:00 +28°C° 0 mm 5 m/s 753 mmHg 78%
    20:00 +28°C° 0,2 mm 5 m/s 754 mmHg 81%
    21:00 +27°C° 0,2 mm 5 m/s 754 mmHg 83%
    22:00 +27°C° 0,2 mm 5 m/s 755 mmHg 86%
    23:00 +27°C° 0,2 mm 5 m/s 754 mmHg 86%

    Après-demain, 15 Décembre, Vendredi

    Heure Température Précipitation Vent Pression Humidité
    00:00 +27°C° 0,2 mm 5 m/s 754 mmHg 87%
    01:00 +27°C° 0,2 mm 5 m/s 754 mmHg 87%
    02:00 +27°C° 0 mm 5 m/s 754 mmHg 88%
    03:00 +26°C° 0 mm 5 m/s 753 mmHg 88%
    04:00 +26°C° 0 mm 5 m/s 753 mmHg 88%
    05:00 +27°C° 0 mm 5 m/s 754 mmHg 86%
    06:00 +27°C° 0 mm 5 m/s 754 mmHg 84%
    07:00 +27°C° 0 mm 6 m/s 755 mmHg 82%
    08:00 +29°C° 0 mm 6 m/s 755 mmHg 74%
    09:00 +30°C° 0 mm 6 m/s 755 mmHg 66%
    10:00 +33°C° 0 mm 7 m/s 756 mmHg 58%
    11:00 +34°C° 0 mm 7 m/s 755 mmHg 55%
    12:00 +34°C° 0 mm 7 m/s 754 mmHg 52%
    13:00 +35°C° 0 mm 7 m/s 753 mmHg 50%
    14:00 +34°C° 0 mm 7 m/s 753 mmHg 52%
    15:00 +34°C° 0 mm 6 m/s 752 mmHg 55%
    16:00 +33°C° 0 mm 6 m/s 752 mmHg 57%
    17:00 +32°C° 0 mm 6 m/s 752 mmHg 64%
    18:00 +29°C° 0 mm 6 m/s 753 mmHg 71%
    19:00 +28°C° 0 mm 5 m/s 753 mmHg 78%
    20:00 +28°C° 0 mm 5 m/s 754 mmHg 79%
    21:00 +27°C° 0 mm 5 m/s 754 mmHg 81%
    22:00 +27°C° 0 mm 5 m/s 755 mmHg 83%
    23:00 +27°C° 0,1 mm 5 m/s 755 mmHg 84%

    16 Décembre, Samedi

    Heure Température Précipitation Vent Pression Humidité
    00:00 +27°C° 0,1 mm 5 m/s 754 mmHg 85%
    01:00 +27°C° 0,1 mm 5 m/s 754 mmHg 86%
    02:00 +26°C° 0 mm 4 m/s 754 mmHg 87%
    03:00 +26°C° 0 mm 4 m/s 754 mmHg 88%
    04:00 +26°C° 0 mm 4 m/s 754 mmHg 89%
    05:00 +26°C° 0 mm 4 m/s 754 mmHg 87%
    06:00 +27°C° 0 mm 4 m/s 755 mmHg 86%
    07:00 +27°C° 0 mm 4 m/s 755 mmHg 85%
    08:00 +29°C° 0,1 mm 5 m/s 755 mmHg 78%
    09:00 +30°C° 0,1 mm 6 m/s 756 mmHg 70%
    10:00 +33°C° 0,1 mm 7 m/s 756 mmHg 62%
    11:00 +34°C° 0 mm 7 m/s 755 mmHg 58%
    12:00 +34°C° 0 mm 7 m/s 754 mmHg 54%
    13:00 +35°C° 0 mm 7 m/s 754 mmHg 49%
    14:00 +35°C° 0 mm 7 m/s 753 mmHg 51%
    15:00 +34°C° 0 mm 7 m/s 753 mmHg 52%
    16:00 +33°C° 0 mm 7 m/s 752 mmHg 54%
    17:00 +32°C° 0,1 mm 6 m/s 753 mmHg 63%
    18:00 +29°C° 0,1 mm 6 m/s 753 mmHg 72%
    19:00 +28°C° 0,1 mm 5 m/s 754 mmHg 81%
    20:00 +27°C° 0,1 mm 5 m/s 754 mmHg 82%
    21:00 +27°C° 0,1 mm 5 m/s 754 mmHg 83%
    22:00 +27°C° 0,1 mm 5 m/s 755 mmHg 84%
    23:00 +27°C° 0,1 mm 5 m/s 755 mmHg 85%

    17 Décembre, Dimanche

    Heure Température Précipitation Vent Pression Humidité
    00:00 +27°C° 0,1 mm 5 m/s 754 mmHg 86%
    01:00 +27°C° 0,1 mm 5 m/s 754 mmHg 87%
    02:00 +26°C° 0,2 mm 4 m/s 754 mmHg 88%
    03:00 +26°C° 0,2 mm 4 m/s 754 mmHg 89%
    04:00 +26°C° 0,2 mm 4 m/s 754 mmHg 89%
    05:00 +26°C° 0,1 mm 4 m/s 754 mmHg 89%
    06:00 +26°C° 0,1 mm 4 m/s 755 mmHg 88%
    07:00 +27°C° 0,1 mm 4 m/s 755 mmHg 87%
    08:00 +28°C° 0,1 mm 5 m/s 756 mmHg 78%
    09:00 +30°C° 0,1 mm 5 m/s 756 mmHg 69%
    10:00 +33°C° 0,1 mm 6 m/s 756 mmHg 61%
    11:00 +33°C° 0,1 mm 6 m/s 755 mmHg 58%
    12:00 +34°C° 0,1 mm 6 m/s 754 mmHg 55%
    13:00 +34°C° 0,1 mm 7 m/s 754 mmHg 53%
    14:00 +34°C° 0 mm 7 m/s 753 mmHg 55%
    15:00 +33°C° 0 mm 6 m/s 753 mmHg 58%
    16:00 +33°C° 0 mm 6 m/s 752 mmHg 60%
    17:00 +30°C° 0,1 mm 6 m/s 753 mmHg 67%
    18:00 +29°C° 0,1 mm 6 m/s 753 mmHg 74%
    19:00 +28°C° 0,1 mm 5 m/s 754 mmHg 81%
    20:00 +28°C° 0,1 mm 6 m/s 754 mmHg 82%
    21:00 +28°C° 0,1 mm 6 m/s 754 mmHg 83%
    22:00 +27°C° 0,1 mm 6 m/s 754 mmHg 84%
    23:00 +27°C° 0,1 mm 6 m/s 754 mmHg 84%

    18 Décembre, Lundi

    Heure Température Précipitation Vent Pression Humidité
    00:00 +27°C° 0,1 mm 5 m/s 754 mmHg 84%
    01:00 +27°C° 0,1 mm 5 m/s 753 mmHg 83%
    02:00 +26°C° 0 mm 5 m/s 753 mmHg 84%
    03:00 +26°C° 0 mm 4 m/s 753 mmHg 85%
    04:00 +25°C° 0 mm 4 m/s 753 mmHg 86%
    05:00 +25°C° 0 mm 4 m/s 754 mmHg 85%
    06:00 +26°C° 0 mm 4 m/s 754 mmHg 84%
    07:00 +26°C° 0 mm 4 m/s 755 mmHg 83%
    08:00 +28°C° 0 mm 5 m/s 755 mmHg 72%
    09:00 +30°C° 0 mm 5 m/s 755 mmHg 61%
    10:00 +33°C° 0 mm 6 m/s 755 mmHg 50%
    11:00 +34°C° 0 mm 6 m/s 754 mmHg 49%
    12:00 +34°C° 0 mm 6 m/s 754 mmHg 48%
    13:00 +35°C° 0 mm 6 m/s 753 mmHg 47%
    14:00 +34°C° 0 mm 6 m/s 753 mmHg 50%
    15:00 +34°C° 0 mm 6 m/s 752 mmHg 53%
    16:00 +33°C° 0 mm 6 m/s 752 mmHg 56%
    17:00 +32°C° 0 mm 6 m/s 752 mmHg 63%
    18:00 +29°C° 0 mm 5 m/s 753 mmHg 69%
    19:00 +28°C° 0 mm 5 m/s 753 mmHg 76%
    20:00 +28°C° 0 mm 5 m/s 754 mmHg 78%
    21:00 +27°C° 0 mm 6 m/s 754 mmHg 79%
    22:00 +27°C° 0 mm 6 m/s 754 mmHg 81%
    23:00 +27°C° 0 mm 6 m/s 754 mmHg 82%
    Voir plus